Temperature
6 6 6 6 5 5 5 4 4 4 4 6 7 7 8 9 9 8 8 7 6 6 6 6 6 6 6 6 6 6 6 6 6 6 6 6 6 6 6 6 6 5 5 4
6 6 6 5 5 5 5 5 5 5 6 7 7 8 8 8 8 7 7 6 6 5 5 5 5 5 5 5 5 5 5 5 5 5 5 5 5 5 4 4 4 4 3 3
5 5 6 5 5 5 5 5 5 6 7 7 7 7 8 8 7 7 6 6 5 5 5 5 4 4 4 4 4 4 4 4 4 4 4 4 4 3 3 3 2 2 2 2
5 5 5 7 7 6 6 6 6 6 7 7 7 8 8 8 7 6 6 5 5 4 4 4 4 3 3 3 3 3 3 3 3 3 3 3 2 2 2 1 1 1 1 1
5 5 5 6 7 6 6 7 7 7 7 8 8 7 7 7 7 6 5 5 4 4 4 3 3 3 3 3 2 2 2 2 2 2 2 2 1 1 1 1 0 0 0 0
5 5 5 7 8 8 7 7 8 8 7 8 7 6 6 7 6 5 5 4 4 3 3 3 2 2 2 2 2 2 1 1 1 1 1 1 1 1 0 0 -0 -0 -0 -0
5 5 5 6 7 8 7 8 9 8 8 8 6 7 7 6 5 5 4 4 3 3 2 2 2 2 1 1 1 1 1 0 0 0 0 0 0 0 0 0 -0 -0 -1 -1
5 5 5 7 7 7 7 8 8 8 8 7 7 7 6 5 5 4 4 3 2 2 2 1 1 1 1 1 1 0 0 0 0 0 0 -0 0 -0 -0 -0 -1 -1 -1 -1
5 6 7 7 8 8 8 8 8 8 8 7 6 6 6 5 4 4 3 3 2 2 1 1 1 1 1 1 0 0 0 0 0 -0 -0 -0 -0 -0 -1 -1 -1 -1 -2 -2
5 5 6 7 8 8 8 8 8 7 7 7 6 6 5 5 4 3 3 2 2 1 1 1 0 0 0 0 0 0 0 -0 -0 -0 -0 -0 -1 -1 -1 -1 -2 -2 -2 -3
5 5 6 8 8 8 8 7 7 7 7 6 5 5 5 4 4 3 3 2 2 1 1 1 1 0 0 0 0 0 0 0 -0 -0 -0 -1 -1 -1 -2 -2 -2 -3 -3 -3
5 5 5 6 7 7 7 7 7 6 6 5 5 5 4 4 3 3 2 2 2 1 1 1 1 1 0 0 0 0 0 0 -0 -0 -1 -1 -1 -2 -2 -2 -3 -3 -3 -4
5 5 5 6 6 6 6 6 6 6 5 5 4 4 4 4 3 3 2 2 2 2 1 1 1 1 1 0 0 0 0 0 -0 -1 -1 -1 -2 -2 -2 -3 -3 -4 -4 -4
4 4 4 5 5 5 5 5 5 5 5 4 4 4 3 3 3 2 2 2 2 1 1 1 1 1 1 1 0 0 0 -0 -0 -1 -1 -2 -2 -2 -3 -3 -4 -4 -5 -5
3 3 3 3 4 4 4 4 4 4 4 4 3 3 3 3 2 2 2 1 1 1 1 1 1 1 1 0 0 -0 -0 -1 -1 -1 -2 -2 -2 -3 -3 -4 -4 -5 -5 -6
2 3 3 3 3 3 3 3 3 4 3 3 3 2 2 2 1 1 1 1 1 1 1 1 1 1 1 0 0 -0 -1 -1 -1 -1 -2 -2 -3 -3 -4 -4 -5 -5 -6 -6
1 2 2 2 2 2 2 3 3 3 3 3 2 2 2 1 1 1 1 1 1 1 1 1 1 1 0 0 -0 -1 -1 -1 -1 -2 -2 -3 -3 -4 -4 -5 -5 -6 -6 -7
1 1 1 1 1 2 2 2 2 3 2 2 2 1 1 1 1 1 0 0 0 0 0 0 0 0 0 -0 -1 -1 -1 -1 -2 -2 -3 -3 -4 -4 -5 -5 -6 -6 -7 -7
1 1 1 1 1 2 2 2 2 2 2 2 1 1 1 1 0 0 0 0 0 1 0 0 0 -0 -0 -1 -1 -1 -1 -2 -2 -3 -3 -4 -4 -5 -5 -6 -6 -7 -7 -7
0 1 1 1 1 2 2 2 2 2 1 1 1 1 0 0 0 -0 -0 0 0 0 0 0 -0 -0 -1 -1 -1 -2 -2 -2 -3 -3 -4 -4 -5 -5 -6 -6 -7 -7 -7 -8
0 0 1 1 1 1 1 1 1 1 1 1 1 1 0 0 0 -0 -0 0 0 -0 -0 -0 -0 -1 -1 -1 -2 -2 -2 -3 -3 -3 -4 -4 -5 -6 -6 -6 -7 -7 -7 -8
-0 -0 0 0 0 0 0 0 0 0 0 0 0 0 -0 -0 -0 -0 -0 0 -0 -0 -0 -0 -1 -1 -1 -2 -2 -2 -3 -3 -3 -4 -4 -5 -5 -6 -6 -7 -7 -7 -8 -8
-1 -1 -0 -0 -0 -0 -1 -1 -1 -1 -0 -0 -0 -0 -0 -0 -0 -0 0 -0 -0 -0 -0 -1 -1 -1 -2 -2 -2 -3 -3 -3 -4 -4 -5 -5 -6 -6 -6 -7 -7 -7 -8 -8
-1 -1 -1 -1 -1 -1 -1 -1 -1 -1 -1 -1 -1 -1 -1 -1 -1 -1 -1 -1 -1 -1 -1 -1 -1 -2 -2 -2 -3 -3 -3 -4 -4 -4 -5 -5 -6 -6 -7 -7 -7 -7 -8 -8
-2 -2 -1 -1 -1 -2 -2 -2 -1 -1 -1 -1 -2 -1 -2 -1 -1 -1 -1 -1 -1 -1 -1 -1 -2 -2 -2 -3 -3 -3 -3 -4 -4 -5 -5 -5 -6 -6 -7 -7 -7 -7 -8 -8
-2 -2 -2 -2 -2 -2 -2 -2 -2 -2 -2 -2 -2 -2 -2 -2 -2 -2 -1 -1 -2 -2 -2 -2 -2 -2 -2 -3 -3 -3 -4 -4 -4 -5 -5 -6 -6 -6 -7 -7 -7 -7 -8 -8
-3 -3 -3 -3 -3 -3 -3 -3 -3 -3 -3 -3 -3 -2 -2 -2 -2 -2 -2 -2 -2 -2 -2 -2 -2 -3 -3 -3 -3 -4 -4 -4 -5 -5 -5 -6 -6 -6 -7 -7 -7 -7 -8 -8
Wind_Speed
2 3 5 5 7 10 9 8 8 7 7 12 10 9 10 9 8 8 6 5 5 5 5 6 7 7 7 7 6 5 7 8 8 8 10 11 12 12 13 13 14 14 14 14
1 1 4 5 8 11 11 10 11 10 12 13 9 6 7 9 8 7 6 4 4 4 5 6 6 6 6 6 5 6 8 8 9 11 12 12 13 13 14 14 14 14 14 13
1 2 1 6 9 13 7 7 9 13 12 10 9 10 9 7 6 5 4 3 3 3 3 4 4 4 5 5 5 7 9 9 10 12 13 13 14 14 14 13 14 14 13 13
0 1 4 6 3 7 8 8 10 9 10 9 9 8 6 4 3 3 2 2 2 2 2 3 4 5 5 6 7 8 9 9 10 11 13 13 13 13 13 12 12 12 12 11
1 2 6 7 3 5 6 5 7 11 12 10 6 5 4 1 1 1 0 0 1 1 2 3 4 5 6 7 7 8 9 9 9 10 12 13 13 12 11 11 11 10 10 9
2 2 4 4 1 2 4 3 2 4 6 5 1 3 3 2 2 2 3 2 3 3 4 5 5 6 7 7 8 8 8 9 9 10 11 12 12 11 10 10 10 10 9 8
4 4 7 6 3 3 2 3 3 3 4 4 4 5 2 3 2 3 4 4 4 5 5 4 5 7 8 7 7 7 8 9 9 10 10 10 10 10 10 10 10 9 9 7
5 5 7 3 4 4 4 3 3 4 4 4 4 2 3 3 4 5 5 4 5 6 5 5 5 7 8 7 7 8 9 10 10 9 9 9 10 9 9 9 9 8 7 6
7 7 4 2 4 4 3 4 5 4 4 3 3 4 4 4 5 5 5 5 5 6 6 5 5 6 8 7 7 9 9 10 9 9 8 8 8 8 7 6 6 5 5 4
5 7 6 7 6 5 5 5 5 4 4 3 4 4 4 5 6 6 6 6 6 7 7 6 5 6 7 7 8 9 9 8 8 8 8 7 6 5 5 5 5 4 4 3
5 6 7 4 2 3 3 3 3 3 2 3 3 4 5 6 7 7 6 6 6 7 7 7 6 7 7 7 8 9 9 8 7 7 8 7 6 5 5 3 4 4 3 2
5 3 3 5 5 4 4 4 4 3 3 2 3 5 5 6 7 7 7 7 7 7 8 7 7 7 6 7 8 9 8 7 6 6 6 6 6 6 9 8 9 8 5 3
3 4 5 7 5 3 4 4 3 3 3 2 2 4 5 6 7 7 8 8 8 8 8 8 8 7 6 6 7 8 8 7 6 6 6 5 5 5 5 6 8 9 7 6
2 4 4 4 4 5 4 3 2 1 1 1 2 4 5 6 7 8 8 8 8 9 9 8 8 7 6 7 8 8 7 7 7 5 5 5 4 4 4 3 2 3 5 6
4 5 6 7 6 4 3 2 2 1 1 1 2 4 6 7 8 7 8 9 9 9 8 8 8 7 6 8 8 8 7 6 5 5 5 5 4 4 3 3 2 1 2 3
8 7 6 6 6 5 4 3 4 3 3 3 4 4 6 7 7 8 8 9 10 9 9 8 8 7 7 8 9 7 6 9 8 6 5 4 4 3 3 2 1 1 2 2
6 6 6 7 7 7 5 5 5 4 4 5 5 6 7 8 8 7 7 7 7 7 7 8 8 7 8 8 8 6 6 7 9 6 4 4 3 3 2 1 0 1 2 4
6 7 8 8 8 7 6 5 4 4 5 5 7 8 8 9 9 8 8 8 8 7 6 7 8 8 8 8 7 6 6 5 5 5 4 4 3 2 2 1 1 2 2 3
7 7 8 7 6 5 4 3 2 3 4 6 8 7 7 7 7 8 8 9 9 8 6 7 12 9 8 9 9 6 7 6 5 4 4 4 3 2 1 1 1 2 3 3
7 8 7 7 6 4 3 2 1 3 4 6 7 7 6 7 8 8 8 6 5 5 8 9 9 8 8 9 9 6 6 6 6 5 4 3 3 2 2 2 2 3 3 3
8 9 8 7 6 6 4 2 1 2 3 5 6 7 7 7 7 7 7 5 3 7 9 12 8 7 7 8 9 6 6 6 5 5 4 3 3 2 2 2 3 3 3 4
8 8 8 7 6 6 4 3 1 2 3 4 5 6 7 7 7 5 4 4 6 10 8 7 6 9 11 10 6 6 6 6 5 4 4 3 3 3 3 3 3 4 4 4
6 6 7 7 6 5 4 3 2 1 2 4 5 7 7 6 6 6 5 4 6 11 8 7 10 14 14 8 6 6 6 6 5 4 4 4 3 3 3 4 4 4 4 5
6 7 6 6 5 4 5 4 3 1 0 1 3 5 6 5 4 2 3 10 12 12 7 10 15 15 13 6 6 6 5 5 4 4 4 3 3 3 3 4 4 4 5 6
5 5 5 6 5 4 4 4 3 1 1 0 1 3 3 3 4 4 5 8 12 11 7 11 15 14 9 6 6 6 5 5 5 4 4 3 3 3 4 4 4 5 5 5
4 5 5 5 4 3 3 2 2 2 1 0 0 1 2 2 4 5 5 7 9 10 8 6 8 9 6 6 6 5 5 4 4 3 4 3 4 4 4 4 5 5 5 6
4 4 4 4 4 4 3 3 3 3 2 2 2 2 2 3 4 5 6 6 6 6 6 6 6 6 6 6 5 5 4 4 3 3 3 3 3 4 4 5 5 5 5 6
Wind_Direction
181 169 162 187 188 187 196 194 203 232 240 266 275 285 294 297 303 308 313 322 331 332 332 336 342 344 349 358 4 27 54 61 68 77 85 92 97 101 106 109 111 110 109 108
18 190 202 224 217 207 215 219 232 255 272 265 270 276 282 288 295 301 309 316 324 335 340 344 349 351 356 8 20 48 67 71 78 85 88 91 95 98 101 103 105 105 106 107
288 306 333 259 224 204 202 205 202 234 247 270 287 288 286 289 291 293 301 306 321 334 342 352 357 4 13 26 46 65 75 80 85 91 93 93 97 98 99 101 102 101 101 103
130 21 245 248 221 186 205 229 214 231 254 268 268 282 284 270 261 276 292 313 338 350 8 21 32 41 48 56 64 73 79 84 88 94 97 98 98 99 99 100 100 101 102 104
161 266 284 297 253 177 185 258 226 231 255 269 282 306 286 194 161 202 267 26 61 66 71 65 64 69 73 70 72 77 81 85 91 99 102 103 102 102 102 102 98 98 100 102
168 226 255 256 277 175 137 281 247 208 254 276 313 305 279 160 128 98 87 89 89 84 83 78 75 83 84 80 79 80 84 88 91 98 103 104 104 103 101 100 100 99 95 93
205 236 265 257 256 133 165 243 269 245 260 261 230 237 226 140 128 115 106 101 98 94 88 87 93 96 94 90 86 89 91 92 92 94 97 100 99 99 101 102 100 97 95 85
186 213 254 252 138 173 227 269 282 278 273 263 248 233 166 156 144 131 120 113 109 102 93 89 98 105 102 96 96 97 96 94 92 92 95 100 101 98 100 105 104 102 99 85
201 220 245 238 220 247 248 269 279 278 282 269 245 220 186 165 151 143 137 131 121 115 105 95 96 109 110 106 107 105 101 98 95 93 91 95 102 106 103 101 105 105 100 92
251 264 264 265 262 269 259 257 274 279 281 246 242 217 185 167 158 152 147 143 135 126 120 112 106 107 113 117 116 111 107 103 102 100 95 87 86 92 100 104 105 107 107 104
252 281 305 307 303 312 313 303 302 306 280 251 233 207 183 172 165 158 151 145 142 137 132 128 122 117 118 122 122 115 110 108 103 98 99 90 82 83 94 92 128 127 124 125
234 253 261 286 315 330 313 302 296 296 296 267 209 196 175 168 162 156 152 146 141 137 135 133 129 124 124 127 129 125 119 113 108 106 102 100 97 85 83 89 91 94 102 101
271 298 266 277 301 325 306 294 288 277 267 261 209 177 162 153 152 151 149 150 149 146 142 139 136 131 131 132 131 127 127 125 117 116 116 115 113 112 101 75 73 70 63 54
343 340 306 313 311 315 305 302 301 300 279 202 169 150 144 140 146 151 153 152 145 141 142 141 137 136 137 131 125 122 122 127 126 122 122 118 113 109 110 108 74 23 20 24
345 325 286 290 295 299 298 285 277 267 214 151 148 150 149 150 152 150 144 141 140 141 144 143 140 140 138 132 129 129 126 124 121 117 114 111 108 103 98 96 90 43 356 355
312 306 296 294 295 294 293 275 257 247 214 188 170 161 152 143 138 138 143 149 151 154 154 150 146 146 140 134 130 125 127 135 131 123 117 113 110 111 108 104 94 20 333 319
310 312 314 310 306 297 282 266 249 235 207 189 177 154 140 135 135 142 148 149 146 146 149 149 147 142 139 138 135 132 128 135 133 123 121 125 125 128 132 138 168 301 304 307
298 296 296 294 295 293 288 272 245 218 196 182 158 151 155 159 161 159 151 139 130 127 136 144 143 139 136 136 134 133 132 130 131 133 132 135 134 134 138 155 243 288 300 312
327 320 317 312 306 293 289 280 248 196 168 158 160 166 167 165 157 153 150 151 153 156 159 155 151 143 139 145 138 132 133 133 131 131 133 144 133 132 150 205 253 272 284 294
344 341 340 340 344 342 335 336 129 147 155 157 156 156 158 159 155 155 156 162 171 163 155 153 147 143 142 147 141 135 138 141 142 142 139 142 153 177 208 235 253 267 276 283
350 350 351 354 356 1 7 20 109 147 158 162 166 170 166 161 159 158 160 165 159 148 153 154 149 146 145 148 143 138 141 145 149 154 158 166 180 203 227 247 264 274 279 284
349 350 352 354 358 360 2 13 62 145 157 161 161 159 159 162 163 161 164 167 161 160 153 151 150 156 158 148 141 145 148 151 154 158 167 180 195 217 236 250 262 274 278 281
348 350 351 352 352 350 360 13 25 132 176 179 176 175 176 176 175 174 177 167 160 165 157 159 164 162 157 147 147 150 154 159 165 174 183 193 205 220 237 252 260 269 277 281
349 351 349 347 353 5 4 356 357 2 163 184 185 180 174 171 177 181 157 166 170 165 162 169 167 164 157 148 151 155 161 168 174 181 188 197 210 225 239 251 263 270 272 279
343 344 348 353 356 353 343 343 356 23 60 97 169 176 178 176 178 172 162 167 171 164 161 172 169 165 155 151 158 164 170 179 183 185 193 204 217 231 243 250 258 268 274 276
338 336 332 328 327 329 331 333 325 313 296 260 227 181 166 152 151 156 161 165 168 167 162 158 160 160 155 158 162 168 172 181 189 191 199 212 226 237 248 256 265 268 272 276
331 331 332 335 337 338 329 314 302 289 264 239 240 206 180 169 164 164 163 163 162 160 156 153 152 153 156 159 162 165 169 175 183 194 205 217 229 241 251 260 265 270 275 278
Height
1461 1460 1462 1464 1466 1469 1471 1474 1478 1472 1470 1458 1454 1453 1450 1448 1446 1444 1443 1441 1439 1436 1434 1432 1429 1427 1424 1422 1419 1417 1415 1414 1413 1413 1414 1416 1418 1421 1424 1427 1431 1435 1439 1443
1461 1460 1462 1463 1462 1464 1465 1466 1466 1466 1462 1451 1450 1449 1447 1445 1444 1442 1440 1439 1437 1435 1433 1430 1428 1425 1423 1421 1419 1417 1416 1415 1415 1415 1415 1417 1419 1422 1425 1428 1431 1435 1440 1444
1465 1462 1460 1462 1455 1457 1459 1458 1459 1460 1454 1447 1448 1446 1444 1442 1441 1440 1438 1437 1435 1433 1431 1430 1428 1425 1423 1421 1420 1418 1417 1417 1417 1417 1418 1419 1422 1424 1427 1430 1433 1437 1441 1446
1463 1463 1465 1453 1446 1448 1451 1450 1450 1449 1446 1445 1444 1442 1441 1440 1439 1437 1436 1435 1433 1432 1430 1429 1428 1426 1424 1423 1421 1420 1420 1419 1420 1420 1421 1423 1425 1428 1430 1434 1437 1440 1444 1448
1463 1464 1461 1449 1444 1445 1448 1446 1443 1444 1443 1442 1441 1440 1438 1437 1436 1436 1434 1433 1432 1431 1430 1429 1428 1427 1426 1425 1424 1423 1423 1423 1423 1424 1425 1426 1429 1432 1435 1437 1440 1444 1447 1450
1461 1462 1462 1448 1442 1441 1445 1444 1440 1440 1440 1440 1440 1441 1438 1436 1435 1433 1432 1432 1431 1430 1430 1429 1429 1428 1427 1427 1426 1426 1426 1427 1428 1429 1430 1431 1434 1436 1439 1441 1444 1447 1449 1452
1458 1459 1455 1444 1440 1442 1448 1444 1439 1438 1438 1437 1437 1437 1435 1433 1432 1432 1431 1431 1430 1430 1430 1430 1430 1429 1429 1429 1429 1429 1430 1431 1432 1433 1434 1436 1438 1440 1443 1445 1447 1449 1451 1453
1455 1457 1454 1439 1440 1443 1441 1438 1437 1436 1435 1435 1434 1432 1431 1431 1430 1430 1430 1430 1430 1430 1430 1430 1431 1431 1431 1431 1432 1433 1434 1434 1436 1437 1439 1441 1442 1444 1446 1448 1450 1451 1453 1454
1449 1447 1440 1438 1438 1437 1437 1436 1435 1434 1433 1432 1430 1429 1429 1428 1428 1428 1429 1429 1430 1430 1431 1431 1432 1433 1434 1434 1435 1436 1437 1438 1440 1441 1443 1445 1446 1448 1449 1451 1452 1453 1454 1455
1444 1439 1436 1436 1435 1435 1434 1433 1432 1431 1430 1429 1427 1427 1426 1426 1426 1427 1428 1428 1429 1430 1431 1432 1433 1434 1435 1436 1438 1439 1440 1442 1443 1445 1446 1448 1449 1451 1452 1452 1453 1454 1454 1454
1441 1437 1434 1432 1433 1432 1431 1430 1429 1428 1427 1426 1425 1424 1424 1424 1425 1425 1426 1428 1429 1430 1431 1433 1434 1436 1437 1439 1440 1442 1443 1445 1446 1448 1449 1450 1452 1453 1453 1454 1454 1455 1454 1454
1438 1435 1435 1433 1432 1431 1429 1428 1427 1425 1424 1423 1422 1421 1422 1422 1423 1424 1425 1427 1428 1430 1432 1434 1435 1437 1439 1441 1443 1444 1446 1447 1449 1450 1451 1452 1453 1453 1454 1454 1454 1454 1454 1453
1434 1433 1432 1430 1429 1428 1426 1425 1423 1422 1421 1420 1419 1419 1419 1420 1421 1423 1424 1426 1428 1430 1432 1434 1436 1438 1440 1442 1444 1446 1448 1449 1451 1452 1453 1453 1454 1454 1454 1455 1454 1454 1453 1452
1431 1430 1428 1427 1426 1424 1423 1421 1420 1419 1418 1418 1417 1417 1418 1418 1420 1421 1423 1425 1427 1430 1432 1434 1437 1439 1441 1444 1446 1448 1449 1451 1452 1453 1454 1454 1454 1454 1454 1454 1453 1453 1452 1450
1428 1428 1426 1424 1423 1421 1419 1418 1417 1416 1416 1415 1415 1415 1416 1417 1418 1420 1422 1424 1427 1429 1432 1434 1437 1440 1442 1444 1447 1449 1450 1451 1452 1453 1454 1454 1454 1454 1453 1453 1452 1451 1450 1449
1425 1424 1422 1421 1419 1417 1416 1415 1414 1413 1413 1413 1413 1413 1414 1416 1417 1419 1421 1423 1426 1428 1431 1434 1437 1440 1443 1445 1447 1449 1450 1451 1452 1453 1453 1453 1453 1453 1452 1452 1451 1450 1448 1447
1422 1420 1419 1417 1415 1414 1413 1412 1411 1411 1410 1410 1411 1411 1412 1414 1415 1417 1420 1422 1425 1428 1431 1434 1437 1440 1442 1445 1447 1448 1450 1451 1452 1452 1452 1452 1452 1452 1451 1450 1449 1448 1447 1445
1420 1418 1416 1414 1412 1410 1409 1408 1408 1408 1407 1408 1409 1409 1410 1412 1414 1416 1418 1421 1424 1427 1430 1433 1436 1439 1442 1444 1446 1448 1449 1450 1451 1451 1451 1451 1451 1450 1450 1449 1447 1446 1444 1443
1416 1415 1413 1411 1409 1407 1406 1405 1405 1405 1405 1405 1406 1407 1409 1411 1413 1415 1417 1420 1422 1425 1428 1432 1435 1438 1441 1443 1445 1447 1448 1448 1449 1449 1449 1449 1449 1448 1447 1446 1445 1444 1442 1440
1414 1412 1410 1408 1407 1405 1404 1403 1403 1403 1403 1404 1405 1406 1407 1409 1411 1414 1416 1419 1422 1425 1428 1431 1434 1437 1439 1442 1444 1445 1446 1447 1447 1448 1448 1447 1447 1446 1445 1444 1443 1441 1440 1438
1412 1410 1408 1407 1405 1404 1402 1402 1401 1401 1401 1402 1403 1404 1406 1408 1410 1413 1415 1417 1421 1424 1427 1430 1433 1436 1438 1440 1442 1443 1444 1445 1445 1446 1445 1445 1445 1444 1443 1442 1440 1439 1437 1435
1411 1409 1408 1406 1404 1403 1401 1401 1400 1400 1400 1401 1402 1403 1405 1406 1409 1411 1414 1417 1420 1423 1426 1429 1432 1434 1437 1439 1440 1442 1442 1443 1443 1443 1443 1443 1442 1441 1440 1439 1438 1436 1434 1432
1411 1409 1407 1405 1404 1402 1401 1400 1400 1399 1399 1400 1401 1402 1403 1405 1407 1410 1412 1416 1418 1421 1425 1428 1431 1433 1435 1437 1438 1440 1440 1441 1441 1441 1441 1440 1440 1439 1437 1436 1435 1433 1431 1429
1410 1408 1407 1405 1404 1402 1401 1400 1399 1399 1399 1399 1400 1401 1402 1404 1406 1409 1412 1414 1417 1420 1423 1426 1429 1431 1433 1435 1436 1437 1438 1438 1439 1439 1438 1438 1437 1436 1435 1433 1432 1430 1428 1426
1409 1407 1406 1404 1403 1401 1400 1399 1398 1398 1398 1398 1399 1399 1401 1402 1405 1407 1410 1412 1415 1418 1421 1424 1427 1429 1431 1433 1434 1435 1436 1436 1436 1436 1435 1435 1434 1433 1432 1430 1429 1427 1425 1423
1408 1406 1404 1403 1402 1400 1399 1398 1397 1397 1397 1397 1397 1398 1399 1400 1402 1405 1407 1410 1413 1416 1419 1422 1424 1427 1428 1430 1431 1432 1433 1433 1433 1433 1432 1432 1431 1430 1428 1427 1426 1424 1422 1420
1406 1405 1403 1402 1400 1399 1398 1397 1396 1395 1395 1395 1395 1396 1397 1398 1400 1402 1405 1407 1410 1413 1416 1419 1422 1424 1426 1427 1429 1430 1430 1430 1430 1430 1429 1429 1428 1427 1425 1424 1422 1421 1419 1417